When you browse on this site, cookies collect data to enhance your experience and personalize the content and advertising you see.
Visit our Privacy Policy to learn more. By continuing to use the site, you agree to this use of cookies and data.
  • In Czech Republic
  • List of Countries
  • For 7 days
  • Water Temperature
  • Satellite Maps
  • Weather Map
  • Weather Widgets
  • user-avatar
    Login

    Hourly Weather Lankaran

    Today, 20 January, Sunday

    Time Temperature Precipitation Wind Pressure Humidity
    00:00 -6°C° 0 mm 3 mps 632 mmHg 45%
    01:00 -6°C° 0 mm 3 mps 632 mmHg 44%
    02:00 -6°C° 0 mm 3 mps 632 mmHg 43%
    03:00 -7°C° 0 mm 3 mps 632 mmHg 47%
    04:00 -7°C° 0 mm 3 mps 632 mmHg 46%
    05:00 -7°C° 0 mm 3 mps 633 mmHg 45%
    06:00 -7°C° 0 mm 3 mps 633 mmHg 44%
    07:00 -5°C° 0 mm 2 mps 633 mmHg 43%
    08:00 -4°C° 0 mm 2 mps 634 mmHg 43%
    09:00 -3°C° 0 mm 2 mps 635 mmHg 41%
    10:00 -2°C° 0 mm 2 mps 635 mmHg 40%
    11:00 +1°C° 0 mm 1 mps 635 mmHg 39%
    12:00 +2°C° 0 mm 1 mps 636 mmHg 38%
    13:00 +2°C° 0 mm 1 mps 635 mmHg 41%
    14:00 +2°C° 0 mm 1 mps 635 mmHg 44%
    15:00 +2°C° 0 mm 1 mps 635 mmHg 48%
    16:00 +1°C° 0 mm 1 mps 635 mmHg 53%
    17:00 -1°C° 0 mm 1 mps 634 mmHg 58%
    18:00 -2°C° 0 mm 1 mps 634 mmHg 63%
    19:00 -2°C° 0 mm 1 mps 634 mmHg 58%
    20:00 -2°C° 0 mm 1 mps 634 mmHg 53%
    21:00 -2°C° 0 mm 1 mps 634 mmHg 49%
    22:00 -5°C° 0 mm 2 mps 634 mmHg 45%
    23:00 -5°C° 0 mm 2 mps 634 mmHg 42%

    Tomorrow, 21 January, Monday

    Time Temperature Precipitation Wind Pressure Humidity
    00:00 -5°C° 0 mm 2 mps 634 mmHg 39%
    01:00 -5°C° 0 mm 2 mps 634 mmHg 37%
    02:00 -5°C° 0 mm 2 mps 634 mmHg 36%
    03:00 -5°C° 0 mm 2 mps 634 mmHg 34%
    04:00 -5°C° 0 mm 2 mps 634 mmHg 34%
    05:00 -5°C° 0 mm 2 mps 634 mmHg 35%
    06:00 -6°C° 0 mm 2 mps 634 mmHg 35%
    07:00 -4°C° 0 mm 2 mps 635 mmHg 35%
    08:00 -1°C° 0 mm 1 mps 635 mmHg 35%
    09:00 0°C° 0 mm 1 mps 635 mmHg 35%
    10:00 +1°C° 0 mm 1 mps 635 mmHg 36%
    11:00 +1°C° 0 mm 2 mps 635 mmHg 37%
    12:00 +1°C° 0 mm 2 mps 635 mmHg 37%
    13:00 +1°C° 0 mm 2 mps 635 mmHg 40%
    14:00 +2°C° 0 mm 2 mps 634 mmHg 42%
    15:00 +2°C° 0 mm 2 mps 634 mmHg 45%
    16:00 -1°C° 0 mm 2 mps 633 mmHg 49%
    17:00 -2°C° 0 mm 2 mps 632 mmHg 53%
    18:00 -3°C° 0 mm 2 mps 632 mmHg 58%
    19:00 -3°C° 0 mm 2 mps 632 mmHg 51%
    20:00 -4°C° 0 mm 2 mps 631 mmHg 45%
    21:00 -5°C° 0 mm 3 mps 631 mmHg 39%
    22:00 -5°C° 0 mm 3 mps 631 mmHg 37%
    23:00 -5°C° 0 mm 3 mps 631 mmHg 35%

    Day after tomorrow, 22 January, Tuesday

    Time Temperature Precipitation Wind Pressure Humidity
    00:00 -4°C° 0 mm 3 mps 630 mmHg 33%
    01:00 -5°C° 0 mm 3 mps 630 mmHg 34%
    02:00 -5°C° 0 mm 3 mps 630 mmHg 35%
    03:00 -5°C° 0 mm 3 mps 630 mmHg 36%
    04:00 -5°C° 0 mm 3 mps 630 mmHg 36%
    05:00 -5°C° 0 mm 3 mps 630 mmHg 37%
    06:00 -5°C° 0 mm 3 mps 630 mmHg 38%
    07:00 -4°C° 0 mm 3 mps 630 mmHg 37%
    08:00 -2°C° 0 mm 3 mps 631 mmHg 35%
    09:00 -1°C° 0 mm 3 mps 631 mmHg 34%
    10:00 +1°C° 0 mm 2 mps 632 mmHg 34%
    11:00 +2°C° 0 mm 2 mps 632 mmHg 33%
    12:00 +3°C° 0 mm 2 mps 632 mmHg 33%
    13:00 +3°C° 0 mm 2 mps 632 mmHg 36%
    14:00 +3°C° 0 mm 2 mps 631 mmHg 40%
    15:00 +4°C° 0 mm 1 mps 631 mmHg 43%
    16:00 +3°C° 0 mm 1 mps 631 mmHg 48%
    17:00 +1°C° 0 mm 1 mps 631 mmHg 52%
    18:00 0°C° 0 mm 1 mps 631 mmHg 57%
    19:00 0°C° 0 mm 1 mps 631 mmHg 55%
    20:00 -1°C° 0 mm 1 mps 631 mmHg 54%
    21:00 -1°C° 0 mm 1 mps 632 mmHg 52%
    22:00 -1°C° 0 mm 1 mps 632 mmHg 53%
    23:00 -1°C° 0 mm 1 mps 632 mmHg 53%

    23 January, Wednesday

    Time Temperature Precipitation Wind Pressure Humidity
    00:00 -1°C° 0 mm 1 mps 632 mmHg 54%
    01:00 -2°C° 0 mm 1 mps 632 mmHg 58%
    02:00 -2°C° 0 mm 1 mps 632 mmHg 62%
    03:00 -2°C° 0 mm 1 mps 632 mmHg 65%
    04:00 -2°C° 0 mm 1 mps 632 mmHg 66%
    05:00 -3°C° 0 mm 1 mps 632 mmHg 67%
    06:00 -3°C° 0 mm 1 mps 632 mmHg 67%
    07:00 -2°C° 0 mm 1 mps 633 mmHg 63%
    08:00 -1°C° 0 mm 1 mps 633 mmHg 59%
    09:00 0°C° 0 mm 1 mps 634 mmHg 55%
    10:00 -1°C° 0 mm 2 mps 634 mmHg 55%
    11:00 -1°C° 0 mm 2 mps 634 mmHg 55%
    12:00 +1°C° 0 mm 2 mps 634 mmHg 55%
    13:00 +1°C° 0 mm 2 mps 634 mmHg 59%
    14:00 +1°C° 0 mm 2 mps 634 mmHg 63%
    15:00 +1°C° 0 mm 2 mps 633 mmHg 67%
    16:00 -1°C° 0 mm 2 mps 634 mmHg 73%
    17:00 -2°C° 0 mm 2 mps 634 mmHg 80%
    18:00 -3°C° 0 mm 2 mps 634 mmHg 86%
    19:00 -3°C° 0 mm 2 mps 634 mmHg 86%
    20:00 -3°C° 0 mm 2 mps 634 mmHg 85%
    21:00 -3°C° 0 mm 2 mps 634 mmHg 84%
    22:00 -1°C° 0 mm 1 mps 634 mmHg 81%
    23:00 -2°C° 0 mm 1 mps 634 mmHg 77%

    24 January, Thursday

    Time Temperature Precipitation Wind Pressure Humidity
    00:00 -2°C° 0 mm 1 mps 634 mmHg 74%
    01:00 -2°C° 0 mm 1 mps 634 mmHg 71%
    02:00 -2°C° 0 mm 1 mps 634 mmHg 69%
    03:00 -2°C° 0 mm 1 mps 634 mmHg 66%
    04:00 -2°C° 0 mm 1 mps 634 mmHg 66%
    05:00 -2°C° 0 mm 1 mps 634 mmHg 65%
    06:00 -2°C° 0 mm 1 mps 634 mmHg 65%
    07:00 -1°C° 0 mm 1 mps 635 mmHg 62%
    08:00 0°C° 0 mm 1 mps 635 mmHg 59%
    09:00 +1°C° 0 mm 1 mps 636 mmHg 56%
    10:00 +2°C° 0 mm 1 mps 636 mmHg 57%
    11:00 +1°C° 0 mm 2 mps 636 mmHg 58%
    12:00 +2°C° 0 mm 2 mps 636 mmHg 59%
    13:00 +2°C° 0 mm 2 mps 636 mmHg 63%
    14:00 +2°C° 0 mm 2 mps 635 mmHg 67%
    15:00 +2°C° 0 mm 2 mps 635 mmHg 71%
    16:00 +1°C° 0 mm 2 mps 635 mmHg 75%
    17:00 -1°C° 0 mm 2 mps 635 mmHg 80%
    18:00 -2°C° 0 mm 2 mps 635 mmHg 85%
    19:00 -2°C° 0 mm 2 mps 635 mmHg 82%
    20:00 -2°C° 0 mm 2 mps 634 mmHg 78%
    21:00 -3°C° 0 mm 2 mps 634 mmHg 75%
    22:00 -3°C° 0 mm 2 mps 634 mmHg 68%
    23:00 -2°C° 0 mm 2 mps 634 mmHg 61%

    25 January, Friday

    Time Temperature Precipitation Wind Pressure Humidity
    00:00 -2°C° 0 mm 2 mps 634 mmHg 54%
    01:00 -2°C° 0 mm 2 mps 633 mmHg 53%
    02:00 -2°C° 0 mm 2 mps 633 mmHg 52%
    03:00 -2°C° 0 mm 2 mps 633 mmHg 51%
    04:00 -2°C° 0 mm 2 mps 633 mmHg 52%
    05:00 -2°C° 0 mm 2 mps 632 mmHg 54%
    06:00 -2°C° 0 mm 2 mps 632 mmHg 55%
    07:00 -1°C° 0 mm 2 mps 633 mmHg 54%
    08:00 +1°C° 0 mm 2 mps 633 mmHg 53%
    09:00 +1°C° 0 mm 2 mps 633 mmHg 51%
    10:00 +3°C° 0 mm 2 mps 633 mmHg 48%
    11:00 +4°C° 0 mm 3 mps 633 mmHg 44%
    12:00 +5°C° 0 mm 3 mps 633 mmHg 41%
    13:00 +5°C° 0 mm 3 mps 633 mmHg 42%
    14:00 +5°C° 0 mm 3 mps 632 mmHg 43%
    15:00 +5°C° 0 mm 3 mps 632 mmHg 45%
    16:00 +4°C° 0 mm 3 mps 631 mmHg 48%
    17:00 +3°C° 0 mm 3 mps 631 mmHg 50%
    18:00 0°C° 0 mm 4 mps 630 mmHg 53%
    19:00 0°C° 0 mm 4 mps 630 mmHg 52%
    20:00 0°C° 0 mm 4 mps 630 mmHg 51%
    21:00 0°C° 0 mm 4 mps 630 mmHg 50%
    22:00 0°C° 0 mm 4 mps 630 mmHg 50%
    23:00 0°C° 0 mm 4 mps 629 mmHg 50%
    Show more